Location: Unspecified
(58.9933°N, 5.6375°E)
Time: 16:40:53
(UTC+02:00)

Okean 3 - Visible Passes

Search period start: 24 October 2014 00:00
Search period end: 02 November 2014 23:00
Orbit: 584 x 608 km, 82.5° (Epoch: 23 October)

Date Brightness Start Highest point End Pass type
(mag) Time Alt. Az. Time Alt. Az. Time Alt. Az.
24 Oct 6.5 06:45:46 10° NNE 06:47:22 12° NE 06:48:59 10° ENE visible
25 Oct 6.3 06:55:19 10° NNE 06:57:50 15° NE 07:00:20 10° E visible
26 Oct 6.2 06:05:07 10° N 06:08:14 19° NE 06:11:20 10° ESE visible
27 Oct 5.8 06:15:02 10° N 06:18:36 24° ENE 06:22:07 10° ESE visible
28 Oct 5.4 06:25:01 10° N 06:28:55 31° ENE 06:32:45 10° SE visible
29 Oct 6.7 04:59:43 10° NNE 05:00:32 10° NE 05:01:21 10° NE visible
29 Oct 4.8 06:35:03 10° N 06:39:10 42° ENE 06:43:14 10° SE visible
30 Oct 6.4 05:08:52 10° NNE 05:10:59 13° NE 05:13:05 10° ENE visible
30 Oct 4.2 06:45:07 10° N 06:49:23 57° ENE 06:53:35 10° SSE visible
31 Oct 6.3 05:18:33 10° NNE 05:21:23 17° NE 05:24:11 10° E visible
31 Oct 3.7 06:55:13 10° NNW 06:59:33 79° ENE 07:03:48 10° SSE visible
01 Nov 6.0 05:28:24 10° N 05:31:44 21° ENE 05:35:03 10° ESE visible
01 Nov 3.5 07:05:21 10° NNW 07:09:39 75° W 07:13:54 10° S visible
02 Nov 5.6 05:38:19 10° N 05:42:02 28° ENE 05:45:43 10° ESE visible
